Weather History for KC75 - June, 2013

Change the Weather History Date:

Wednesday, June 26, 2013

  Actual Average (KPIA) Record (KPIA)
Temperature  
Mean Temperature 76 °F 75 °F  
Max Temperature 84 °F 85 °F 102 °F (1934)
Min Temperature 67 °F 64 °F 48 °F (1926)
Degree Days  
Heating Degree Days 0 0  
Month to date heating degree days 17  
Since 1 June heating degree days 17  
Since 1 July heating degree days 5830  
Cooling Degree Days 10 10  
Month to date cooling degree days 182  
Year to date cooling degree days 263  
Since 1 June cooling degree days 182  
Growing Degree Days 26 (Base 50)    
Moisture  
Dew Point 70 °F    
Average Humidity 83    
Maximum Humidity 96    
Minimum Humidity 63    
Precipitation  
Precipitation 0.46 in 0.12 in 1.07 in (1973)
Month to date precipitation 3.06  
Year to date precipitation 17.39  
Snow  
Snow 0.00 in 0.00 in 0.00 in ()
Month to date snowfall 0.0  
Since 1 June snowfall 0.0  
Since 1 July snowfall 24.6  
Snow Depth -    
Sea Level Pressure  
Sea Level Pressure 29.77 in    
Wind  
Wind Speed 5 mph (SSW)    
Max Wind Speed 9 mph    
Max Gust Speed 26 mph    
Visibility 10 miles    
Events Rain , Thunderstorm    
T = Trace of Precipitation, MM = Missing Value Source: NWS Daily Summary

Daily Weather History Graph

Daily Weather History Graph

Search for Another Location

Airport or City:

Trip Planner

Search our weather history database for the weather conditions in past years. The results will help you decide how hot, cold, wet, or windy it might be!

Date:

Astronomy

Jun. 26, 2013 Rise Set
Actual Time 5:27 AM CDT 8:33 PM CDT
Civil Twilight 4:53 AM CDT 9:07 PM CDT
Nautical Twilight 4:10 AM CDT 9:50 PM CDT
Astronomical Twilight 3:19 AM CDT 10:41 PM CDT
Moon 10:54 PM CDT (6/26) 9:20 AM CDT (6/26)
Length of Visible Light 16h 14m
Length of Day
15h 06m
Waning Gibbous, 85% of the Moon is Illuminated
Jun 26
Waning Gibbous
Jun 29
Last Quarter
Jul 8
New
Jul 15
First Quarter
Jul 22
Full

Hourly Weather History & Observations

Time (CDT) Temp. Heat Index Dew Point Humidity Pressure Visibility Wind Dir Wind Speed Gust Speed Precip Events Conditions
12:15 AM 71.2 °F - 67.6 °F 88% 29.84 in 10.0 mi South 5.8 mph - N/A   Clear
12:35 AM 70.7 °F - 67.8 °F 91% 29.83 in 10.0 mi South 6.9 mph - N/A   Clear
12:55 AM 70.7 °F - 68.0 °F 91% 29.82 in 10.0 mi South 5.8 mph - N/A   Clear
1:15 AM 70.5 °F - 68.2 °F 92% 29.81 in 10.0 mi South 4.6 mph - N/A   Clear
1:35 AM 70.0 °F - 68.2 °F 94% 29.80 in 10.0 mi South 4.6 mph - N/A   Clear
1:55 AM 70.0 °F - 68.0 °F 93% 29.80 in 10.0 mi South 3.5 mph - N/A   Clear
2:15 AM 70.2 °F - 68.0 °F 93% 29.79 in 10.0 mi South 3.5 mph - N/A   Clear
2:35 AM 71.1 °F - 68.7 °F 92% 29.80 in 10.0 mi Calm Calm - N/A   Clear
2:55 AM 71.6 °F - 69.1 °F 92% 29.79 in 10.0 mi South 5.8 mph - N/A   Clear
3:15 AM 72.1 °F - 69.8 °F 92% 29.77 in 10.0 mi South 8.1 mph - N/A   Clear
3:35 AM 72.3 °F - 69.8 °F 92% 29.76 in 10.0 mi South 8.1 mph - N/A   Clear
3:55 AM 72.0 °F - 69.4 °F 92% 29.76 in 10.0 mi South 9.2 mph - N/A   Clear
4:15 AM 71.6 °F - 69.3 °F 92% 29.76 in 10.0 mi South 8.1 mph - N/A   Clear
4:35 AM 71.6 °F - 69.4 °F 93% 29.76 in 10.0 mi South 8.1 mph - N/A   Clear
4:55 AM 71.8 °F - 69.4 °F 92% 29.77 in 10.0 mi South 6.9 mph - N/A   Clear
5:15 AM 72.0 °F - 69.8 °F 93% 29.77 in 10.0 mi South 8.1 mph - N/A   Clear
5:35 AM 72.1 °F - 69.8 °F 92% 29.78 in 10.0 mi South 5.8 mph - N/A   Clear
5:55 AM 72.0 °F - 69.8 °F 93% 29.78 in 10.0 mi South 5.8 mph - N/A   Clear
6:15 AM 72.1 °F - 70.0 °F 93% 29.77 in 10.0 mi South 5.8 mph - N/A   Scattered Clouds
6:35 AM 72.1 °F - 70.2 °F 93% 29.78 in 10.0 mi South 4.6 mph - N/A   Scattered Clouds
6:55 AM 72.5 °F - 70.5 °F 93% 29.78 in 10.0 mi South 4.6 mph - N/A Thunderstorm Scattered Clouds
7:15 AM 72.7 °F - 70.7 °F 93% 29.77 in 10.0 mi South 5.8 mph - N/A   Mostly Cloudy
7:35 AM 71.1 °F - 68.2 °F 91% 29.82 in 3.0 mi WSW 9.2 mph 26.5 mph 0.20 in Rain , Thunderstorm Heavy Thunderstorms and Rain
7:55 AM 67.5 °F - 65.7 °F 94% 29.78 in 7.0 mi South 6.9 mph - 0.32 in Rain , Thunderstorm Light Thunderstorms and Rain
8:15 AM 67.6 °F - 65.5 °F 93% 29.80 in 7.0 mi SSW 6.9 mph - 0.02 in Rain , Thunderstorm Rain
8:35 AM 67.3 °F - 65.5 °F 94% 29.79 in 7.0 mi SSE 4.6 mph - 0.07 in Rain , Thunderstorm Rain
8:55 AM 67.1 °F - 65.8 °F 96% 29.78 in 7.0 mi SE 8.1 mph - 0.12 in Rain Rain
9:15 AM 67.1 °F - 65.3 °F 94% 29.73 in 10.0 mi ESE 8.1 mph - 0.02 in Rain Light Rain
9:55 AM 68.0 °F - 66.4 °F 95% 29.75 in 10.0 mi West 4.6 mph - 0.02 in   Clear
10:15 AM 69.8 °F - 66.0 °F 88% 29.75 in 10.0 mi SSW 3.5 mph - N/A   Scattered Clouds
10:35 AM 72.1 °F - 67.1 °F 84% 29.75 in 10.0 mi Calm Calm - N/A   Scattered Clouds
10:55 AM 73.8 °F - 68.2 °F 83% 29.77 in 10.0 mi SSW 3.5 mph - N/A   Clear
11:15 AM 74.7 °F - 68.7 °F 82% 29.78 in 10.0 mi SW 6.9 mph - N/A   Clear
11:35 AM 75.4 °F - 68.7 °F 80% 29.78 in 10.0 mi South 5.8 mph - N/A   Clear
11:55 AM 75.7 °F - 67.1 °F 74% 29.78 in 10.0 mi South 4.6 mph - N/A   Clear
12:15 PM 75.9 °F - 66.9 °F 74% 29.79 in 10.0 mi Calm Calm - N/A   Clear
12:35 PM 77.2 °F - 67.6 °F 72% 29.78 in 10.0 mi Calm Calm - N/A   Clear
12:55 PM 78.1 °F - 69.1 °F 74% 29.78 in 10.0 mi South 3.5 mph - N/A   Clear
1:15 PM 78.6 °F - 69.4 °F 73% 29.77 in 10.0 mi South 4.6 mph - N/A   Scattered Clouds
1:35 PM 78.6 °F - 68.9 °F 72% 29.77 in 10.0 mi South 4.6 mph - N/A   Mostly Cloudy
1:55 PM 79.7 °F - 67.3 °F 66% 29.76 in 10.0 mi SSW 4.6 mph - N/A   Scattered Clouds
2:15 PM 80.1 °F 82.6 °F 67.6 °F 66% 29.76 in 10.0 mi WSW 5.8 mph - N/A   Clear
2:35 PM 81.1 °F 83.9 °F 68.0 °F 64% 29.76 in 10.0 mi West 4.6 mph - N/A   Clear
2:55 PM 81.1 °F 84.4 °F 69.3 °F 67% 29.77 in 10.0 mi SSW 4.6 mph - N/A   Clear
3:15 PM 82.4 °F 86.7 °F 70.7 °F 68% 29.76 in 10.0 mi SW 3.5 mph - N/A   Clear
3:35 PM 82.6 °F 87.3 °F 71.6 °F 69% 29.75 in 10.0 mi SSW 4.6 mph - N/A   Clear
3:55 PM 83.7 °F 88.6 °F 71.1 °F 66% 29.74 in 10.0 mi WSW 4.6 mph - N/A   Clear
4:15 PM 84.7 °F 90.4 °F 71.6 °F 65% 29.74 in 10.0 mi West 6.9 mph - N/A   Clear
4:35 PM 84.2 °F 89.6 °F 71.6 °F 66% 29.73 in 10.0 mi WSW 8.1 mph - N/A   Clear
4:55 PM 84.6 °F 90.0 °F 71.4 °F 65% 29.73 in 10.0 mi West 4.6 mph - N/A   Clear
5:15 PM 84.9 °F 91.4 °F 73.0 °F 67% 29.73 in 10.0 mi West 4.6 mph - N/A   Clear
5:35 PM 84.9 °F 90.1 °F 71.1 °F 63% 29.73 in 10.0 mi NW 6.9 mph - N/A   Clear
5:55 PM 84.4 °F 90.3 °F 72.1 °F 67% 29.73 in 10.0 mi WNW 3.5 mph - N/A   Clear
6:15 PM 84.2 °F 89.9 °F 72.1 °F 67% 29.73 in 10.0 mi WNW 3.5 mph - N/A   Scattered Clouds
6:35 PM 82.6 °F 87.8 °F 72.5 °F 71% 29.73 in 10.0 mi Calm Calm - N/A   Scattered Clouds
6:55 PM 82.6 °F 88.3 °F 73.0 °F 73% 29.73 in 10.0 mi NW 3.5 mph - N/A   Mostly Cloudy
7:15 PM 82.0 °F 87.7 °F 73.6 °F 75% 29.73 in 10.0 mi NNW 3.5 mph - N/A   Mostly Cloudy
7:35 PM 81.3 °F 87.0 °F 74.1 °F 79% 29.74 in 10.0 mi Calm Calm - N/A   Overcast
7:55 PM 81.5 °F 87.2 °F 74.1 °F 78% 29.73 in 10.0 mi Calm Calm - N/A   Overcast
8:15 PM 79.7 °F - 75.7 °F 88% 29.74 in 10.0 mi Calm Calm - N/A   Overcast
8:35 PM 79.0 °F - 72.7 °F 81% 29.74 in 10.0 mi NE 3.5 mph - N/A   Mostly Cloudy
8:55 PM 77.9 °F - 71.6 °F 81% 29.75 in 10.0 mi NE 3.5 mph - N/A   Scattered Clouds
9:15 PM 77.2 °F - 71.1 °F 81% 29.75 in 10.0 mi Calm Calm - N/A   Scattered Clouds
9:35 PM 76.3 °F - 71.2 °F 84% 29.75 in 10.0 mi Calm Calm - N/A   Scattered Clouds
9:55 PM 75.2 °F - 71.6 °F 89% 29.75 in 10.0 mi Calm Calm - N/A   Clear
10:15 PM 74.3 °F - 71.1 °F 90% 29.76 in 10.0 mi Calm Calm - N/A   Clear
10:35 PM 73.2 °F - 71.6 °F 95% 29.77 in 10.0 mi Calm Calm - N/A   Clear
10:55 PM 72.9 °F - 70.9 °F 93% 29.78 in 10.0 mi Calm Calm - N/A   Clear
11:35 PM 73.0 °F - 71.1 °F 93% 29.78 in 10.0 mi Calm Calm - N/A   Scattered Clouds
11:55 PM 72.1 °F - 70.7 °F 95% 29.78 in 10.0 mi Calm Calm - N/A   Clear